Location: Basse Occidentale du Courleau
(48.3833°N, 4.8333°W)
Time: 19:14:54
(UTC+00:00)

Landsat 7 - Pass Details

Date: 05 July 2020
Orbit: 701 x 703 km, 98.1° (Epoch: 06 August)

Event Time Altitude Azimuth Distance (km) Brightness Sun altitude
Exits shadow 21:21:47 - 165° (SSE) 2,426 6.0 -8.1°
Reaches altitude 10° 21:22:26 10° 166° (SSE) 2,166 5.8 -8.2°
Maximum altitude 21:27:11 87° 256° (WSW) 711 3.9 -8.7°
Drops below altitude 10° 21:31:59 10° 346° (NNW) 2,182 7.5 -9.2°
Sets 21:34:15 0° 347° (NNW) 3,104 8.5 -9.4°
